User: anonymous   Login
Location: Podia
(1.5569°N, 32.3469°E)
Time: 16:28:48
(UTC+00:00)
Language:

Cosmos 2346 Rocket - Orbit

View from above orbital plane
View from above orbital plane
View from above satellite
View from above satellite

Ground track
Ground track

The orbit data is extracted from the following two-line orbital elements,

1 24955U 97052C   20225.34261492  .00000031  00000-0  14002-4 0  9995
2 24955  82.9219 126.1711 0030846 122.8259 237.5878 13.81553558153820
Epoch (UTC): 12 August 2020 08:13:21
Eccentricity: 0.0030846
inclination: 82.9219°
perigee height: 936 km
apogee height: 981 km
right ascension of ascending node: 126.1711°
argument of perigee: 122.8259°
revolutions per day: 13.81553558
mean anomaly at epoch: 237.5878°
orbit number at epoch: 15382

The dashed part of the orbit path shows where the satellite is in the earth's shadow,  

DLR